Regional Weather Roundup
Issued by NWS

Home | Current Version | Previous Version | Text Only | Print | Product List | Glossary Off
Versions: 1 2 3 4 5 6 7 8 9 10 11 12 13 14 15 16 17 18 19 20 21 22 23 24 25 26 27

000
ASUS45 KPSR 082110
RWRAZ

ARIZONA HOURLY REGIONAL WEATHER ROUNDUP
NATIONAL WEATHER SERVICE PHOENIX AZ
200 PM MST THU DEC 08 2016

NOTE: FAIR INDICATES FEW OR NO CLOUDS BELOW 12,000 FEET WITH NO
SIGNIFICANT WEATHER AND/OR OBSTRUCTIONS TO VISIBILITY.

AZZ001>003-036-082200-
NORTHWEST ARIZONA

CITY           SKY/WX    TMP DP  RH WIND       PRES   REMARKS
BULLHEAD CITY  FAIR      61   9  12 N9        30.23F
KINGMAN        FAIR      55  17  22 W9        30.21F
$$

AZZ004>008-015-016-018-082200-
NORTH CENTRAL ARIZONA

CITY           SKY/WX    TMP DP  RH WIND       PRES   REMARKS
GRAND CANYON   FAIR      45  21  38 SW8       30.24F
WILLIAMS       FAIR      50  16  25 W12       30.23S
PRESCOTT       FAIR      52  30  43 CALM      30.23F
FLAGSTAFF      FAIR      44  23  43 S13       30.24F
PAYSON         FAIR      52  32  46 SW6       30.28S
PAGE           FAIR      42   3  19 N7        30.26F
$$

AZZ009>014-017-082200-
NORTHEAST ARIZONA

CITY           SKY/WX    TMP DP  RH WIND       PRES   REMARKS
WINSLOW        FAIR      47  17  30 CALM      30.25F
SAINT JOHNS    FAIR      50  26  39 E3        30.22F
WINDOW ROCK    FAIR      48  23  37 SE8       30.24F
SHOW LOW       FAIR      48  27  43 S14G21    30.24F
$$

AZZ023-082200-
GREATER PHOENIX AREA

CITY           SKY/WX    TMP DP  RH WIND       PRES   REMARKS
PHOENIX        FAIR      65  40  39 CALM      30.17F
BUCKEYE        FAIR      63  41  45 SW3       30.21S
GLENDALE       MOSUNNY   64  41  42 CALM      30.19F
LUKE AFB       FAIR      65  40  40 CALM      30.17F
DEER VALLEY    FAIR      65  40  39 CALM      30.17F
SCOTTSDALE     FAIR      65  40  39 SW3       30.19F
MESA-GATEWAY   SUNNY     64  41  42 W5        30.19F
CHANDLER       SUNNY     66  39  37 W7        30.18F
$$

AZZ027-028-082200-
SOUTHWEST MARICOPA COUNTY AND PINAL COUNTY

CITY           SKY/WX    TMP DP  RH WIND       PRES   REMARKS
CASA GRANDE    NOT AVBL
GILA BEND      SUNNY     64  23  20 CALM      30.18
$$

AZZ503-504-507>509-082200-
SOUTHEAST ARIZONA

CITY           SKY/WX    TMP DP  RH WIND       PRES   REMARKS
TUCSON         FAIR      67  36  31 VRB3      30.19F
DAVIS-MONTHAN  FAIR      65  38  37 W7        30.17F
RYAN FIELD     SUNNY     64  39  39 W8        30.19
NOGALES        FAIR      66  22  18 VRB6      30.18F
SIERRA VISTA   FAIR      62  30  29 N7        30.21F
DOUGLAS        FAIR      63  33  32 S7        30.19F
SAFFORD        FAIR      62  32  32 VRB6      30.21F
$$

AZZ020-021-025-026-031-082200-
SOUTHWEST ARIZONA

CITY           SKY/WX    TMP DP  RH WIND       PRES   REMARKS
YUMA           FAIR      68  13  12 NE7       30.19F
$$

CAZ031-033-041-043-047-048-061-082200-
SOUTHERN CALIFORNIA

CITY           SKY/WX    TMP DP  RH WIND       PRES   REMARKS
DOWNTOWN L.A.  FAIR      64  44  48 VRB6      30.22S
L.A. AIRPORT   PTSUNNY   62  49  62 W15       30.23S
SAN DIEGO      FAIR      64  47  53 NW13      30.23F
BURBANK        PTSUNNY   66  35  31 VRB3      30.21F
ONTARIO        FAIR      64  39  39 VRB6      30.21F
RIVERSIDE      FAIR      65  42  43 W9        30.21F
PALM SPRINGS   FAIR      66  25  21 SE7       30.20F
EL CENTRO NAS  FAIR      68  18  14 NE3       30.21F
IMPERIAL       FAIR      68  22  17 VRB5      30.19F
BLYTHE         FAIR      63   9  12 E5        30.21F
NEEDLES        FAIR      59  12  15 CALM      30.23F
$$

NVZ020-UTZ003-082200-
SOUTHERN NEVADA-UTAH

CITY           SKY/WX    TMP DP  RH WIND       PRES   REMARKS
LAS VEGAS      FAIR      52   6  15 E6        30.23F
SALT LAKE CITY FLURRIES  29  13  51 NW12      30.18F WCI  19
$$

NMZ009-TXZ055-082200-
NEW MEXICO-WEST TEXAS

CITY           SKY/WX    TMP DP  RH WIND       PRES   REMARKS
ALBUQUERQUE    MOSUNNY   37  15  40 CALM      30.33F
EL PASO        PTSUNNY   40  24  53 SE12      30.36F WCI  33
$$


........................KEY........................
SKY/WX - SKY CONDITION/WEATHER
TMP    - TEMPERATURE IN FAHRENHEIT
DP     - DEW POINT IN FAHRENHEIT
RH     - RELATIVE HUMIDITY IN PERCENT
WIND   - DIRECTION AND SPEED IN MILES PER HOUR (MPH)
VRB    - VARIABLE WIND DIRECTION
PRES   - MEAN SEA LEVEL PRESSURE IN INCHES OF MERCURY
         F - FALLING PRESSURE   R - RISING PRESSURE
         S - STEADY PRESSURE
VSB    - VISIBILITY IN MILES
HX     - HEAT INDEX IN FAHRENHEIT
WCI    - WIND CHILL INDEX IN FAHRENHEIT
TC     - TEMPERATURE IN CELSIUS WHICH IS ALSO KNOWN AS
         TEMPERATURE IN CENTIGRADE
AFB    - AIR FORCE BASE
         LUKE AFB IS LUKE AIR FORCE BASE
         DAVIS-MONTHAN IS DAVIS-MONTHAN AIR FORCE BASE
NAS    - NAVAL AIR STATION
         EL CENTRO NAS IS EL CENTRO NAVAL AIR STATION
N/A    - NOT AVAILABLE





USA.gov is the U.S. government's official web portal to all federal, state and local government web resources and services.